Regional Weather Roundup
Issued by NWS

Home | Current Version | Previous Version | Graphics & Text | Print | Product List | Glossary On
Versions: 1 2 3 4 5 6 7 8 9 10 11 12 13 14 15 16 17 18 19 20 21 22 23 24 25 26 27 28 29 30 31 32 33 34 35 36 37 38 39 40 41 42 43 44 45 46 47 48 49 50
000
ASUS43 KMKX 250100
RWRWI

WISCONSIN REGIONAL WEATHER ROUNDUP
NATIONAL WEATHER SERVICE MILWAUKEE/SULLIVAN WI
800 PM CDT FRI MAR 24 2017

NOTE: "FAIR" INDICATES FEW OR NO CLOUDS BELOW 12,000 FEET WITH NO
SIGNIFICANT WEATHER AND/OR OBSTRUCTIONS TO VISIBILITY.

WIZ001-002-006>008-014>016-023>028-250200-
NORTHWEST WISCONSIN

CITY           SKY/WX    TMP DP  RH WIND       PRES   REMARKS
SUPERIOR ARPT  CLOUDY    36  32  86 N5        30.21R WCI  32
ASHLAND        CLOUDY    35  31  85 NE10      30.22R WCI  27
HAYWARD        CLOUDY    38  29  70 NE12      30.20R WCI  30
SIREN          CLOUDY    38  32  78 CALM      30.19R
CUMBERLAND     CLOUDY    36  32  87 NE10      30.16R WCI  28
RICE LAKE      CLOUDY    38  33  83 CALM      30.17R
CHETEK         CLOUDY    37  33  83 NE5       30.16R WCI  34
LADYSMITH      CLOUDY    38  34  85 NE8       30.15R WCI  32
EAU CLAIRE     CLOUDY    39  35  86 NE8       30.13R WCI  33
MENOMONIE      CLOUDY    40  35  82 N12       30.14R WCI  33
NEW RICHMOND   CLOUDY    38  33  81 NE10      30.15R WCI  32
OSCEOLA        CLOUDY    39  33  79 NE9       30.19R WCI  33
$$

WIZ003>005-009-010-017-018-250200-
NORTH CENTRAL WISCONSIN

CITY           SKY/WX    TMP DP  RH WIND       PRES   REMARKS
MANITOWISH WTR CLOUDY    33  33 100 NE7       30.14S WCI  27
ARBOR VITAE    CLOUDY    37  34  92 NE6       30.12S WCI  32
WOODRUFF       CLOUDY    37  34  92 NE6       30.12S WCI  32
RHINELANDER    CLOUDY    36  34  92 NE7       30.12S WCI  30
EAGLE RIVER    CLOUDY    34  33  97 NE7       30.13S WCI  28
LAND O LAKES   CLOUDY    34  34 100 NE5       30.16R FOG     WCI  30
PHILLIPS       CLOUDY    35  33  93 NE8       30.12R WCI  29
TOMAHAWK       CLOUDY    35  32  90 NE5       30.12S WCI  31
MEDFORD        CLOUDY    36  33  90 NE8       30.10S WCI  29
MERRILL        CLOUDY    36  35  95 NE8       30.11S WCI  30
$$

WIZ029-030-035-036-043>047-250200-
CENTRAL WISCONSIN

CITY           SKY/WX    TMP DP  RH WIND       PRES   REMARKS
WAUSAU         CLOUDY    37  35  92 NE3       30.10R
MOSINEE        CLOUDY    37  37 100 NE6       30.12R WCI  33
MARSHFIELD     CLOUDY    37  35  92 NE9       30.10R WCI  30
STEVENS POINT  DRIZZLE   35  35 100 NE5       30.10S WCI  31
WAUPACA        LGT RAIN  38  36  91 NE6       30.12R WCI  34
WAUTOMA        LGT RAIN  37  35  92 NE7       30.11R WCI  32
WISC RAPIDS    CLOUDY    38  37  97 NE6       30.12R WCI  33
CAMP DOUGLAS   LGT RAIN  37  37 100 NE3       30.09R
$$

WIZ011>013-019>022-031-037>040-048>050-250200-
NORTHEAST WISCONSIN

CITY           SKY/WX    TMP DP  RH WIND       PRES   REMARKS
ANTIGO         CLOUDY    34  33  97 NE8       30.11R WCI  27
SHAWANO        CLOUDY    38  36  92 NE7       30.13R WCI  32
OCONTO         CLOUDY    35  34  97 N5        30.13R WCI  31
STURGEON BAY   CLOUDY    35  34  96 N10       30.14R WCI  27
GREEN BAY      LGT RAIN  36  36 100 NE10      30.13R WCI  28
MANITOWOC      NOT AVBL
APPLETON       LGT RAIN  36  36 100 NE12      30.10R WCI  27
CLINTONVILLE   RAIN      36  36 100 NE7       30.12R WCI  30
OSHKOSH        LGT RAIN  36  34  92 NE15      30.08S FOG     WCI  27
$$

WIZ032>034-041-042-053>061-250200-
SOUTHWEST WISCONSIN

CITY           SKY/WX    TMP DP  RH WIND       PRES   REMARKS
LA CROSSE      CLOUDY    43  38  82 NE10      30.10R
SPARTA         CLOUDY    39  38  94 NE8       30.10R WCI  34
VIROQUA        CLOUDY    38  38  99 NE9       30.07R WCI  31
BOSCOBEL       LGT RAIN  42  39  89 NE6       30.06R
PRAIRIE DU CHI DRIZZLE   43  40  90 N6        30.04R
PLATTEVILLE    CLOUDY    46  44  93 NE13G20   30.01R
$$

WIZ056-057-062-063-064-067-068-250200-
SOUTH CENTRAL WISCONSIN

CITY           SKY/WX    TMP DP  RH WIND       PRES   REMARKS
REEDSBURG      DRIZZLE   37  37 100 NE9       30.07R WCI  30
BARABOO/DELLS  RAIN      37  35  95 NE10G16   30.07R WCI  29
LONE ROCK      CLOUDY    41  37  86 NE10      30.06R FOG
MINERAL POINT  LGT RAIN  45  43  93 NE13G18   30.01R
MADISON        CLOUDY    40  35  83 N17       30.06R WCI  31
MIDDLETON      CLOUDY    41  38  87 NE10      30.05R
WATERTOWN      CLOUDY    41  41 100 N9        30.05R
MONROE         CLOUDY    45  39  81 N17       30.01R
JANESVILLE     MOCLDY    46  39  76 NE13      30.01R
$$

WIZ051-052-058>065-066-070>072-250200-
SOUTHEAST WISCONSIN

CITY           SKY/WX    TMP DP  RH WIND       PRES   REMARKS
MILWAUKEE      CLOUDY    38  35  89 N15       30.05R WCI  29
WAUKESHA       CLOUDY    37  34  87 NE13G21   30.05R WCI  29
MILWAUKEE/TIMM CLOUDY    37  32  81 NE14G22   30.07R WCI  29
RACINE         CLOUDY    38  35  89 N16G23    30.06S WCI  29
KENOSHA        CLOUDY    39  35  86 N12G24    30.06R WCI  32
FOND DU LAC    LGT RAIN  37  33  85 NE12      30.10R WCI  29
SHEBOYGAN      LGT RAIN  36  33  89 NE16      30.09R WCI  26
WEST BEND      CLOUDY    36  36 100 NE13G18   30.07R WCI  27
JUNEAU         CLOUDY    37  36  93 NE10      30.07R WCI  30
$$

LSZ147-162-250200-
LAKE SUPERIOR

STATION/POSITION TIME  TEMP    WIND        PRES    WAVE
                       AIR SEA DIR/SP/G            HT/PER
                 (UTC) (F)     (DEG/KT/KT) (MB)    (FT/S)
DEVILS ISLAND    0000   35      70/ 12/ 13 1023.9R
PORT WING        0030   37      60/  8/ 10 1023.0R
SAXON HARBOR     0040   35      60/ 11/ 14 1022.0F
$$

LMZ867-665-643>646-250200-
LAKE MICHIGAN

STATION/POSITION TIME  TEMP    WIND        PRES    WAVE
                       AIR SEA DIR/SP/G            HT/PER
                 (UTC) (F)     (DEG/KT/KT) (MB)    (FT/S)
CHAMBERS ISLAND  0040   33     360/ 10/ 11 1020.3R
NORTHPORT PIER   0040   34     350/  9/ 13 1020.7R
SISTER BAY       2335   35      30/  7/  8   N/A
KEWAUNEE LAKESHO 0030   35      30/ 12/ 16 1018.9R
SHEBOYGAN LAKESH 0000   36      10/ 18/ 19 1019.0R
PORT WASHINGTON  0030   38      10/  9/ 18 1019.3R
MILWAUKEE LAKESH 0030   37      10/ 15/ 20   N/A
KENOSHA   LAKESH 0000   38      10/ 22/ 27 1016.6
$$

TC  - TEMPERATURE IN CELSIUS
VSB - VISIBILITY IN STATUTE MILES
WCI - WIND CHILL INDEX
HX  - HEAT INDEX





USA.gov is the U.S. government's official web portal to all federal, state and local government web resources and services.